This demonstration page uses our WeatherBlox Daily Observations layout. Learn more.

Left ArrowRight Arrow

Hourly Observations for February 20, 2022

Temp ( °F °C ) Dew Point ( °F °C ) Humidity (%) Winds ( mph kmh ) Pressure ( in mb ) Visibility ( mi km ) Precip ( " mm )
12:15 am 00:15 Clear 37 3 27 -3 65 65 SSW 13 20 29.85 1011 10 16 0.00 0.00
12:35 am 00:35 Clear 37 2.5 26 -3.2 66 66 SSW 13 20 29.84 1011 10 16 0.00 0.00
12:55 am 00:55 Clear 37 2.5 26 -3.4 65 65 SSW 13 20 29.84 1011 10 16 0.00 0.00
1:15 am 01:15 Clear 37 2.9 26 -3.6 63 63 SSW 14 22 29.83 1010 10 16 0.00 0.00
1:35 am 01:35 Clear 38 3.1 25 -3.9 60 60 SSW 13 20 29.83 1010 10 16 0.00 0.00
1:50 am 01:50 Clear 37 3 25 -4.1 60 60 SSW 13 20 29.83 1010 10 16 0.00 0.00
2:15 am 02:15 Clear 38 3.4 24 -4.5 57 57 SSW 14 22 29.81 1010 10 16 0.00 0.00
2:35 am 02:35 Clear 37 2.5 23 -4.8 59 59 SSW 12 19 29.82 1010 10 16 0.00 0.00
2:55 am 02:55 Clear 37 3 23 -5 56 56 SSW 12 19 29.81 1009 10 16 0.00 0.00
3:15 am 03:15 Clear 37 2.7 23 -5.2 56 56 SW 9 15 29.81 1009 10 16 0.00 0.00
3:35 am 03:35 Clear 38 3.2 22 -5.3 54 54 SW 9 15 29.78 1009 10 16 0.00 0.00
3:55 am 03:55 Clear 36 2.3 22 -5.5 57 57 SW 9 15 29.79 1009 10 16 0.00 0.00
4:15 am 04:15 Clear 35 1.6 22 -5.7 59 59 SW 7 11 29.79 1009 10 16 0.00 0.00
4:35 am 04:35 Clear 34 1.3 21 -6 59 59 SW 7 11 29.79 1009 10 16 0.00 0.00
4:55 am 04:55 Clear 34 1 21 -5.9 60 60 WSW 6 9 29.79 1009 10 16 0.00 0.00
5:15 am 05:15 Clear 34 1.3 21 -6.1 58 58 WSW 7 11 29.80 1009 10 16 0.00 0.00
5:35 am 05:35 Clear 34 1 21 -6.2 59 59 WSW 7 11 29.80 1009 10 16 0.00 0.00
5:55 am 05:55 Clear 35 1.7 21 -6.2 56 56 W 10 17 29.80 1009 10 16 0.00 0.00
6:15 am 06:15 Clear 36 2 20 -6.5 54 54 W 9 15 29.80 1009 10 16 0.00 0.00
6:35 am 06:35 Clear 35 1.8 20 -6.5 55 55 W 13 20 29.81 1009 10 16 0.00 0.00
6:55 am 06:55 Clear 37 2.5 20 -6.6 51 51 W 13 20 29.80 1009 10 16 0.00 0.00
7:15 am 07:15 Clear 37 2.5 20 -6.7 51 51 W 13 20 29.80 1009 10 16 0.00 0.00
7:35 am 07:35 Sunny 37 2.8 20 -6.7 50 50 W 12 19 29.81 1009 10 16 0.00 0.00
7:55 am 07:55 Sunny 38 3.1 20 -6.6 49 49 W 9 15 29.81 1009 10 16 0.00 0.00
8:15 am 08:15 Sunny 39 4.1 20 -6.6 46 46 WNW 8 13 29.81 1009 10 16 0.00 0.00
8:35 am 08:35 Sunny 41 4.8 21 -6.1 46 46 WNW 7 11 29.81 1009 10 16 0.00 0.00
8:55 am 08:55 Sunny 43 6.1 22 -5.5 44 44 WNW 8 13 29.81 1009 10 16 0.00 0.00
9:15 am 09:15 Sunny 49 9.4 22 -5.4 35 35 NW 15 24 29.78 1008 10 16 0.00 0.00
9:35 am 09:35 Sunny 50 9.9 22 -5.4 34 34 NW 14 22 29.78 1009 10 16 0.00 0.00
9:55 am 09:55 Sunny 50 10.2 23 -5.2 34 34 NNW 10 17 29.79 1009 10 16 0.00 0.00
10:15 am 10:15 Sunny 51 10.6 23 -5 33 33 NNW 14 22 29.79 1009 10 16 0.00 0.00
10:35 am 10:35 Sunny 53 11.9 24 -4.5 32 32 NNW 12 19 29.78 1008 10 16 0.00 0.00
10:55 am 10:55 Sunny 56 13.4 25 -4 30 30 N 13 20 29.77 1008 10 16 0.00 0.00
11:15 am 11:15 Sunny 58 14.6 25 -3.9 28 28 N 15 24 29.77 1008 10 16 0.00 0.00
11:35 am 11:35 Sunny 60 15.4 25 -3.7 27 27 N 13 20 29.77 1008 10 16 0.00 0.00
11:55 am 11:55 Sunny 60 15.7 25 -4 26 26 NNE 13 20 29.76 1008 10 16 0.00 0.00
12:15 pm 12:15 Sunny 61 16 25 -4.1 25 25 NE 9 15 29.76 1008 10 16 0.00 0.00
12:35 pm 12:35 Sunny 62 16.5 25 -4.1 24 24 NNE 7 11 29.76 1008 10 16 0.00 0.00
12:55 pm 12:55 Sunny 62 16.6 24 -4.4 24 24 N 8 13 29.75 1007 10 16 0.00 0.00
1:15 pm 13:15 Sunny 63 17 24 -4.5 23 23 ENE 9 15 29.73 1007 10 16 0.00 0.00
1:35 pm 13:35 Sunny 63 17.1 24 -4.7 22 22 NNE 8 13 29.72 1006 10 16 0.00 0.00
1:55 pm 13:55 Sunny 63 17.1 23 -5 22 22 NE 6 9 29.71 1006 10 16 0.00 0.00
2:15 pm 14:15 Sunny 63 17.2 23 -5 22 22 NE 6 9 29.70 1006 10 16 0.00 0.00
2:35 pm 14:35 Sunny 64 17.6 23 -4.9 21 21 E 9 15 29.70 1006 10 16 0.00 0.00
2:55 pm 14:55 Sunny 64 17.8 23 -5.1 21 21 Calm 29.70 1006 10 16 0.00 0.00
3:15 pm 15:15 Sunny 64 17.8 23 -5 21 21 ESE 7 11 29.70 1006 10 16 0.00 0.00
3:35 pm 15:35 Sunny 64 17.8 22 -5.4 20 20 SE 7 11 29.70 1006 10 16 0.00 0.00
3:55 pm 15:55 Sunny 65 18.2 22 -5.3 20 20 SE 6 9 29.69 1006 10 16 0.00 0.00
4:15 pm 16:15 Sunny 65 18.2 22 -5.3 20 20 ESE 13 20 29.68 1005 10 16 0.00 0.00
4:35 pm 16:35 Sunny 63 17.3 22 -5.4 21 21 SE 7 11 29.70 1006 10 16 0.00 0.00
4:55 pm 16:55 Sunny 64 17.6 23 -5 21 21 SE 8 13 29.70 1006 10 16 0.00 0.00
5:15 pm 17:15 Sunny 63 17.2 22 -5.3 21 21 SSE 7 11 29.70 1006 10 16 0.00 0.00
5:35 pm 17:35 Sunny 62 16.5 23 -5 23 23 SE 9 15 29.70 1006 10 16 0.00 0.00
5:55 pm 17:55 Sunny 59 15 23 -5.2 25 25 SE 8 13 29.71 1006 10 16 0.00 0.00
6:15 pm 18:15 Sunny 54 12 21 -5.9 28 28 SE 8 13 29.74 1007 10 16 0.00 0.00
6:35 pm 18:35 Clear 49 9.7 20 -6.6 31 31 SE 9 15 29.76 1008 10 16 0.00 0.00
6:55 pm 18:55 Clear 47 8.5 20 -6.9 33 33 SE 8 13 29.77 1008 10 16 0.00 0.00
7:15 pm 19:15 Clear 45 7 19 -7.3 36 36 SE 7 11 29.79 1009 10 16 0.00 0.00
7:35 pm 19:35 Clear 45 7.1 19 -7 36 36 SE 6 9 29.79 1009 10 16 0.00 0.00
7:55 pm 19:55 Clear 44 6.6 19 -7 38 38 SE 8 13 29.79 1009 10 16 0.00 0.00
8:15 pm 20:15 Clear 42 5.6 20 -6.7 41 41 SE 9 15 29.79 1009 10 16 0.00 0.00
8:35 pm 20:35 Clear 44 6.8 21 -6.2 39 39 SSE 7 11 29.78 1009 10 16 0.00 0.00
8:55 pm 20:55 Clear 42 5.6 20 -6.5 42 42 SSE 9 15 29.78 1009 10 16 0.00 0.00
9:15 pm 21:15 Clear 41 5.1 21 -6.3 44 44 S 8 13 29.78 1008 10 16 0.00 0.00
9:35 pm 21:35 Clear 41 4.8 20 -6.5 44 44 SSE 8 13 29.77 1008 10 16 0.00 0.00
9:55 pm 21:55 Clear 38 3.2 21 -6.3 50 50 SSE 7 11 29.78 1009 10 16 0.00 0.00
10:15 pm 22:15 Clear 41 4.8 21 -6.2 45 45 SSE 9 15 29.77 1008 10 16 0.00 0.00
10:35 pm 22:35 Clear 38 3.1 20 -6.9 48 48 SSE 5 7 29.78 1009 10 16 0.00 0.00
10:55 pm 22:55 Clear 37 2.6 20 -6.6 51 51 SSE 8 13 29.78 1008 10 16 0.00 0.00
11:15 pm 23:15 Clear 40 4.3 20 -6.5 46 46 SSE 7 11 29.75 1008 10 16 0.00 0.00
11:35 pm 23:35 Clear 40 4.3 20 -6.4 46 46 S 7 11 29.74 1007 10 16 0.00 0.00
11:55 pm 23:55 Clear 38 3.5 20 -6.4 49 49 SSE 7 11 29.74 1007 10 16 0.00 0.00

Powered by AerisWeather